{"data":{"norad_id":55770,"intl_designator":"2023-028AF","name":"STARLINK-5557","alt_names":[],"object_type":"PAYLOAD","status":"ACTIVE","operator":null,"country":"US","launch_date":"2023-03-03","launch_site_code":"AFWTR","launch_vehicle":null,"mission":null,"orbit_class":"UNKNOWN","rcs_meters":null,"size_class":null,"mass_kg":null,"dimensions":null,"purposes":["comms"],"wikipedia_slug":null,"has_3d_model":false,"image_url":null,"decayed_at":null,"tle_current":{"epoch":"2026-09-20T13:42:05.781600Z","epoch_age_seconds":96974,"freshness":"FRESH","line1":"1 55770U 23028AF  26263.57090025 -.00000272  00000+0 -15040-4 0  9992","line2":"2 55770  69.9982  93.1247 0002215 274.4962  85.5944 14.98328688195725","mean_motion":14.98328688,"eccentricity":0.0002215,"inclination_deg":69.9982,"raan_deg":93.1247,"arg_perigee_deg":274.4962,"mean_anomaly_deg":85.5944,"bstar":-1.504e-5,"rev_number":19572,"period_min":96.107083281048,"perigee_km":570.52047957512,"apogee_km":573.59941682318,"semimajor_km":6950.1969481992,"source":"CELESTRAK","updated_at":"2026-09-21T09:00:33.317000Z"}}}